Weather History for West Palm Beach, FL

Change the Weather History Date:

Sunday, March 24, 2013

  Actual Average Record
Temperature  
Mean Temperature 80 °F 71 °F  
Max Temperature 90 °F 79 °F 92 °F (1908)
Min Temperature 70 °F 63 °F 43 °F (1968)
Degree Days  
Heating Degree Days 0 0  
Month to date heating degree days 59 22  
Since 1 July heating degree days 142 227  
Cooling Degree Days 15 7  
Month to date cooling degree days 80 144  
Year to date cooling degree days 461 379  
Growing Degree Days 30 (Base 50)    
Moisture  
Dew Point 70 °F    
Average Humidity 70    
Maximum Humidity 93    
Minimum Humidity 47    
Precipitation  
Precipitation 0.38 in 0.16 in 1.73 in (1896)
Month to date precipitation 0.97 3.56  
Year to date precipitation 4.16 9.51  
Snow  
Snow 0.00 in - - ()
Month to date snowfall 0.0  
Since 1 July snowfall 0.0  
Snow Depth 0.00 in    
Sea Level Pressure  
Sea Level Pressure 29.77 in    
Wind  
Wind Speed 14 mph (SSW)    
Max Wind Speed 32 mph    
Max Gust Speed 45 mph    
Visibility 9 miles    
Events Rain , Thunderstorm    
T = Trace of Precipitation, MM = Missing Value Source: NWS Daily Summary

Daily Weather History Graph

Daily Weather History Graph

Search for Another Location

Airport:

Trip Planner

Search our weather history database for the weather conditions in past years. The results will help you decide how hot, cold, wet, or windy it might be!

Date:

Astronomy

Mar. 24, 2013 Rise Set
Actual Time 7:19 AM EDT 7:33 PM EDT
Civil Twilight 6:56 AM EDT 7:56 PM EDT
Nautical Twilight 6:29 AM EDT 8:24 PM EDT
Astronomical Twilight 6:02 AM EDT 8:51 PM EDT
Moon 5:11 PM EDT (3/24) 5:15 AM EDT (3/24)
Length of Visible Light 13h 00m
Length of Day
12h 14m
Waxing Gibbous, 91% of the Moon is Illuminated
Mar 24
Waxing Gibbous
Mar 27
Full
Apr 3
Last Quarter
Apr 10
New
Apr 18
First Quarter

Hourly Weather History & Observations

Time (EDT) Temp. Heat Index Dew Point Humidity Pressure Visibility Wind Dir Wind Speed Gust Speed Precip Events Conditions
12:53 AM 75.0 °F - 71.1 °F 87% 29.88 in 10.0 mi South 4.6 mph - N/A   Scattered Clouds
1:53 AM 75.0 °F - 71.1 °F 87% 29.86 in 10.0 mi SSE 4.6 mph - N/A   Mostly Cloudy
2:53 AM 75.0 °F - 72.0 °F 90% 29.84 in 10.0 mi South 8.1 mph - N/A   Mostly Cloudy
3:53 AM 73.9 °F - 72.0 °F 93% 29.82 in 10.0 mi SSE 6.9 mph - N/A   Scattered Clouds
4:53 AM 73.9 °F - 72.0 °F 93% 29.80 in 10.0 mi South 6.9 mph - N/A   Scattered Clouds
5:18 AM 73.4 °F - 71.6 °F 94% 29.79 in 10.0 mi South 9.2 mph - N/A   Scattered Clouds
5:53 AM 73.9 °F - 72.0 °F 93% 29.79 in 10.0 mi South 9.2 mph - N/A   Scattered Clouds
6:53 AM 73.9 °F - 72.0 °F 93% 29.78 in 10.0 mi South 10.4 mph - N/A   Scattered Clouds
7:20 AM 73.4 °F - 71.6 °F 94% 29.77 in 10.0 mi South 11.5 mph - N/A   Mostly Cloudy
7:39 AM 73.4 °F - 71.6 °F 94% 29.77 in 7.0 mi South 11.5 mph - N/A   Scattered Clouds
7:53 AM 75.0 °F - 72.0 °F 90% 29.77 in 7.0 mi South 12.7 mph - N/A   Partly Cloudy
8:27 AM 75.2 °F - 71.6 °F 89% 29.77 in 7.0 mi South 12.7 mph - N/A   Mostly Cloudy
8:53 AM 77.0 °F - 72.0 °F 84% 29.76 in 10.0 mi South 18.4 mph 25.3 mph N/A   Mostly Cloudy
9:53 AM 81.0 °F 84.9 °F 71.1 °F 72% 29.76 in 10.0 mi South 17.3 mph 26.5 mph N/A   Mostly Cloudy
10:53 AM 82.9 °F 87.0 °F 70.0 °F 65% 29.77 in 10.0 mi SSW 23.0 mph 35.7 mph N/A   Mostly Cloudy
11:40 AM 86.0 °F 90.4 °F 69.8 °F 58% 29.77 in 10.0 mi SSW 23.0 mph 36.8 mph N/A   Mostly Cloudy
11:53 AM 82.9 °F 87.0 °F 70.0 °F 65% 29.77 in 10.0 mi SW 24.2 mph 33.4 mph N/A   Mostly Cloudy
12:53 PM 88.0 °F 91.4 °F 68.0 °F 51% 29.75 in 10.0 mi SW 24.2 mph 34.5 mph N/A   Mostly Cloudy
1:53 PM 88.0 °F 91.4 °F 68.0 °F 51% 29.75 in 10.0 mi SW 25.3 mph 34.5 mph N/A   Mostly Cloudy
2:53 PM 90.0 °F 93.6 °F 68.0 °F 48% 29.71 in 10.0 mi WSW 20.7 mph 32.2 mph N/A   Mostly Cloudy
3:53 PM 90.0 °F 92.8 °F 66.9 °F 46% 29.69 in 10.0 mi WSW 17.3 mph 33.4 mph N/A   Mostly Cloudy
4:53 PM 86.0 °F 88.2 °F 66.0 °F 51% 29.69 in 10.0 mi WSW 25.3 mph 33.4 mph N/A   Scattered Clouds
5:53 PM 86.0 °F 88.8 °F 66.9 °F 53% 29.68 in 10.0 mi SW 21.9 mph 32.2 mph N/A   Scattered Clouds
6:53 PM 82.9 °F 85.4 °F 66.9 °F 58% 29.71 in 10.0 mi WSW 16.1 mph 29.9 mph N/A   Mostly Cloudy
7:53 PM 81.0 °F 83.3 °F 66.9 °F 62% 29.75 in 10.0 mi West 12.7 mph - N/A   Mostly Cloudy
8:09 PM 77.0 °F - 62.6 °F 61% 29.75 in 10.0 mi NW 17.3 mph 26.5 mph N/A Thunderstorm Thunderstorm
8:53 PM 71.1 °F - 66.9 °F 87% 29.77 in 10.0 mi NW 11.5 mph - 0.02 in Rain , Thunderstorm Light Thunderstorms and Rain
9:09 PM 69.8 °F - 68.0 °F 94% 29.78 in 3.0 mi NW 5.8 mph - 0.15 in Rain , Thunderstorm Heavy Thunderstorms and Rain
9:31 PM 71.6 °F - 69.8 °F 94% 29.77 in 10.0 mi Calm Calm - 0.20 in Thunderstorm Thunderstorm
9:53 PM 71.1 °F - 69.1 °F 93% 29.78 in 8.0 mi West 4.6 mph - 0.22 in Rain , Thunderstorm Light Thunderstorms and Rain
10:28 PM 71.6 °F - 69.8 °F 94% 29.78 in 9.0 mi SSW 4.6 mph - 0.08 in Rain Light Rain
10:53 PM 72.0 °F - 70.0 °F 93% 29.78 in 10.0 mi SW 5.8 mph - 0.13 in Rain Light Rain
11:37 PM 73.4 °F - 71.6 °F 94% 29.76 in 10.0 mi South 5.8 mph - 0.01 in   Overcast
11:53 PM 73.0 °F - 71.1 °F 93% 29.77 in 10.0 mi SSW 4.6 mph - 0.01 in   Overcast